sat.trackr.live / text

‹ back to catalog

SAUDICOMSAT 1

NORAD 28369 · 2004-025D

PAYLOAD ACTIVE UNKNOWN

§ Identity

Operator
Country
SAUD
Launch date
2004-06-29
Launch site
TYMSC
Launch vehicle
Mass (kg)
RCS (m²)
0.05

External: N2YO · Heavens-Above · Gunter

§ Orbital elements

Epoch: 2026-09-09T23:38:38.912640Z

Period
98.93 min
Inclination
98.5793°
Eccentricity
0.0033150
Mean motion
14.55523360 rev/d
Perigee alt
684.2 km
Apogee alt
731.2 km
Semi-major
7,085.8 km
B*
6.0440e-5
RAAN
265.4162°
Arg perigee
122.6201°
Mean anomaly
237.8202°
Rev number
17,646

§ Raw data

SAUDICOMSAT 11 28369U 04025D   26252.98517260  .00000215  00000+0  60440-4 0  99992 28369  98.5793 265.4162 0033150 122.6201 237.8202 14.55523360176465

JSON: /api/v1/satellites/28369 · /tle

For live sub-satellite position, see the globe view (requires WebGL).

§ Visibility from observer

Set your observer location to see the next 7 days of passes ≥ 10°. The values pass through the URL so the page stays shareable.

No JS? Fill the form by hand. The geolocation button needs JavaScript.